Weather in Bad Ischl

Austria     47°42′47″N   13°37′12″E
temp.,
°C
wind,
m/s
gust,
m/s
humid.,
%
clouds,
%
prec.,
mm/h
press.,
hPa
HPBL,
m
21 june, mon
mon2123:00+17s3387100 0.0 100848
02:00+15wsw22896 0.0 100954
05:00+14ssw22955 0.0 100922
08:00+17nnw239551 1.5 1010328
11:00+20wnw12784 0.9 1010590
14:00+24n225483 0.9 10081549
17:00+24nnw225849 0.1 10081141
20:00+20n118167 0.3 100811
22 june, tue
tue2223:00+16s11940 0.1 100911
02:00+14sw11973 0.6 101015
05:00+14wnw23100100 0.4 1012149
08:00+15w1199100 0.8 1012146
11:00+19n117779 0.1 1012703
14:00+21nne226495 0.2 10111187
17:00+22nnw226678 0.1 1011926
20:00+19nnw118974 0.4 101225
23 june, wed
wed2323:00+15nw119639 2.3 101413
02:00+15nne0010097 2.4 101573
05:00+15nw12100100 0.9 1016184
08:00+14nw119990 1.9 1018115
11:00+16ne119090 0.1 1018334
14:00+22nne226587 0.3 10161148
17:00+21nne226957 0.1 1015885
20:00+19n1187100 0.1 101447
24 june, thu
thu2423:00+15sw11971 0.0 101516
02:00+13wsw129780 0.0 101853
05:00+15s119497 0.0 101840
08:00+17nnw008327 0.1 1018373
11:00+21n226773 0.1 10161026
14:00+22nnw326295 0.1 10161098
17:00+20nnw227297 0.3 1015833
20:00+17w119098 0.4 101531
25 june, fri
fri2523:00+15nw2297100 0.1 101783
02:00+14nw2499100 2.8 1018216
05:00+12wnw1298100 1.6 101990
08:00+12nw1399100 2.6 1020206
11:00+12wnw0095100 0.1 1021140
14:00+17nw2264100 0.2 10191006
17:00+16nw2276100 0.3 1019795
20:00+13wnw1195100 3.9 102016